• In Hungary
  • List of Countries
  • For 7 days
  • Water Temperature
  • Satellite Maps
  • Weather Map
  • News
  • Weather Widgets
  • user-avatar
    Login

    Hourly Weather Mansa

    Today, 17 January, Wednesday

    Time Temperature Precipitation Wind Pressure Humidity
    00:00 +20°C° 1.1 mm 1 mps 659 mmHg 96%
    01:00 +20°C° 1.1 mm 1 mps 659 mmHg 96%
    02:00 +20°C° 1.1 mm 1 mps 659 mmHg 96%
    03:00 +19°C° 0.7 mm 1 mps 659 mmHg 96%
    04:00 +19°C° 0.7 mm 1 mps 659 mmHg 97%
    05:00 +19°C° 0.7 mm 1 mps 658 mmHg 97%
    06:00 +20°C° 0.7 mm 1 mps 659 mmHg 96%
    07:00 +20°C° 0.7 mm 1 mps 659 mmHg 96%
    08:00 +20°C° 0.7 mm 1 mps 659 mmHg 95%
    09:00 +21°C° 1.1 mm 1 mps 659 mmHg 95%
    10:00 +21°C° 1.1 mm 1 mps 659 mmHg 94%
    11:00 +21°C° 1.1 mm 1 mps 659 mmHg 94%
    12:00 +22°C° 0.4 mm 1 mps 659 mmHg 91%
    13:00 +22°C° 0.4 mm 1 mps 658 mmHg 89%
    14:00 +23°C° 0.4 mm 1 mps 658 mmHg 87%
    15:00 +23°C° 0.1 mm 1 mps 657 mmHg 87%
    16:00 +21°C° 0.1 mm 0 mps 657 mmHg 87%
    17:00 +21°C° 0.1 mm 0 mps 656 mmHg 86%
    18:00 +20°C° 0 mm 0 mps 656 mmHg 89%
    19:00 +19°C° 0 mm 0 mps 657 mmHg 92%
    20:00 +18°C° 0 mm 0 mps 657 mmHg 94%
    21:00 +18°C° 0.1 mm 0 mps 657 mmHg 94%
    22:00 +17°C° 0.1 mm 0 mps 658 mmHg 95%
    23:00 +17°C° 0.1 mm 0 mps 658 mmHg 95%

    Tomorrow, 18 January, Thursday

    Time Temperature Precipitation Wind Pressure Humidity
    00:00 +17°C° 0.3 mm 0 mps 658 mmHg 95%
    01:00 +17°C° 0.3 mm 0 mps 657 mmHg 95%
    02:00 +17°C° 0.3 mm 0 mps 657 mmHg 94%
    03:00 +17°C° 0.2 mm 0 mps 657 mmHg 95%
    04:00 +17°C° 0.2 mm 0 mps 657 mmHg 95%
    05:00 +17°C° 0.2 mm 0 mps 657 mmHg 96%
    06:00 +17°C° 0.3 mm 0 mps 657 mmHg 95%
    07:00 +18°C° 0.3 mm 0 mps 658 mmHg 94%
    08:00 +18°C° 0.3 mm 0 mps 659 mmHg 94%
    09:00 +19°C° 0.3 mm 0 mps 659 mmHg 92%
    10:00 +20°C° 0.3 mm 0 mps 659 mmHg 90%
    11:00 +23°C° 0.3 mm 1 mps 659 mmHg 89%
    12:00 +24°C° 0.3 mm 1 mps 658 mmHg 83%
    13:00 +25°C° 0.3 mm 1 mps 658 mmHg 77%
    14:00 +27°C° 0.3 mm 1 mps 658 mmHg 72%
    15:00 +26°C° 1 mm 1 mps 657 mmHg 77%
    16:00 +25°C° 1 mm 1 mps 657 mmHg 82%
    17:00 +25°C° 1 mm 1 mps 656 mmHg 86%
    18:00 +23°C° 1.5 mm 1 mps 657 mmHg 89%
    19:00 +22°C° 1.5 mm 1 mps 657 mmHg 91%
    20:00 +19°C° 1.5 mm 0 mps 657 mmHg 94%
    21:00 +21°C° 1.4 mm 1 mps 658 mmHg 94%
    22:00 +20°C° 1.4 mm 1 mps 658 mmHg 94%
    23:00 +20°C° 1.4 mm 1 mps 658 mmHg 94%

    Day after tomorrow, 19 January, Friday

    Time Temperature Precipitation Wind Pressure Humidity
    00:00 +20°C° 1.6 mm 1 mps 658 mmHg 95%
    01:00 +20°C° 1.6 mm 1 mps 657 mmHg 96%
    02:00 +20°C° 1.6 mm 1 mps 657 mmHg 96%
    03:00 +20°C° 1.8 mm 1 mps 657 mmHg 97%
    04:00 +19°C° 1.8 mm 1 mps 657 mmHg 97%
    05:00 +18°C° 1.8 mm 2 mps 657 mmHg 97%
    06:00 +19°C° 1.2 mm 1 mps 657 mmHg 97%
    07:00 +20°C° 1.2 mm 1 mps 658 mmHg 97%
    08:00 +20°C° 1.2 mm 1 mps 659 mmHg 97%
    09:00 +20°C° 1.4 mm 1 mps 659 mmHg 96%
    10:00 +19°C° 1.4 mm 2 mps 659 mmHg 96%
    11:00 +20°C° 1.4 mm 2 mps 659 mmHg 95%
    12:00 +20°C° 0.6 mm 2 mps 659 mmHg 93%
    13:00 +21°C° 0.6 mm 3 mps 658 mmHg 90%
    14:00 +22°C° 0.6 mm 3 mps 658 mmHg 88%
    15:00 +21°C° 0.2 mm 3 mps 658 mmHg 86%
    16:00 +21°C° 0.2 mm 3 mps 658 mmHg 85%
    17:00 +21°C° 0.2 mm 3 mps 657 mmHg 84%
    18:00 +20°C° 0 mm 2 mps 658 mmHg 88%
    19:00 +19°C° 0 mm 2 mps 658 mmHg 91%
    20:00 +19°C° 0 mm 1 mps 658 mmHg 95%
    21:00 +19°C° 0 mm 1 mps 659 mmHg 95%
    22:00 +19°C° 0 mm 1 mps 659 mmHg 95%
    23:00 +19°C° 0 mm 1 mps 659 mmHg 95%

    20 January, Saturday

    Time Temperature Precipitation Wind Pressure Humidity
    00:00 +19°C° 0.1 mm 1 mps 659 mmHg 95%
    01:00 +19°C° 0.1 mm 1 mps 658 mmHg 95%
    02:00 +18°C° 0.1 mm 1 mps 658 mmHg 96%
    03:00 +18°C° 0.3 mm 1 mps 658 mmHg 96%
    04:00 +18°C° 0.3 mm 1 mps 658 mmHg 96%
    05:00 +18°C° 0.3 mm 1 mps 658 mmHg 96%
    06:00 +19°C° 0.3 mm 1 mps 659 mmHg 96%
    07:00 +19°C° 0.3 mm 1 mps 659 mmHg 96%
    08:00 +19°C° 0.3 mm 1 mps 660 mmHg 95%
    09:00 +19°C° 0.3 mm 1 mps 660 mmHg 95%
    10:00 +18°C° 0.3 mm 2 mps 660 mmHg 94%
    11:00 +19°C° 0.3 mm 2 mps 660 mmHg 93%
    12:00 +19°C° 0.3 mm 2 mps 660 mmHg 92%
    13:00 +19°C° 0.3 mm 2 mps 659 mmHg 91%
    14:00 +19°C° 0.3 mm 2 mps 658 mmHg 90%
    15:00 +20°C° 0 mm 2 mps 658 mmHg 87%
    16:00 +20°C° 0 mm 2 mps 658 mmHg 84%
    17:00 +21°C° 0 mm 2 mps 658 mmHg 81%
    18:00 +21°C° 0 mm 1 mps 658 mmHg 82%
    19:00 +20°C° 0 mm 1 mps 658 mmHg 84%
    20:00 +19°C° 0 mm 1 mps 658 mmHg 86%
    21:00 +18°C° 0 mm 1 mps 658 mmHg 85%
    22:00 +16°C° 0 mm 0 mps 659 mmHg 85%
    23:00 +16°C° 0 mm 0 mps 659 mmHg 85%

    21 January, Sunday

    Time Temperature Precipitation Wind Pressure Humidity
    00:00 +15°C° 0.1 mm 0 mps 658 mmHg 87%
    01:00 +15°C° 0.1 mm 0 mps 658 mmHg 89%
    02:00 +15°C° 0.1 mm 0 mps 657 mmHg 91%
    03:00 +15°C° 0.3 mm 0 mps 658 mmHg 93%
    04:00 +16°C° 0.3 mm 1 mps 658 mmHg 94%
    05:00 +16°C° 0.3 mm 1 mps 658 mmHg 96%
    06:00 +18°C° 0.2 mm 1 mps 659 mmHg 95%
    07:00 +19°C° 0.2 mm 1 mps 659 mmHg 94%
    08:00 +20°C° 0.2 mm 1 mps 660 mmHg 93%
    09:00 +21°C° 0.6 mm 1 mps 660 mmHg 91%
    10:00 +21°C° 0.6 mm 2 mps 660 mmHg 89%
    11:00 +23°C° 0.6 mm 2 mps 660 mmHg 87%
    12:00 +24°C° 1 mm 2 mps 659 mmHg 86%
    13:00 +24°C° 1 mm 2 mps 658 mmHg 84%
    14:00 +25°C° 1 mm 2 mps 658 mmHg 82%
    15:00 +25°C° 1 mm 2 mps 658 mmHg 84%
    16:00 +24°C° 1 mm 2 mps 657 mmHg 86%
    17:00 +24°C° 1 mm 2 mps 657 mmHg 87%
    18:00 +23°C° 1.1 mm 2 mps 658 mmHg 90%
    19:00 +22°C° 1.1 mm 1 mps 658 mmHg 92%
    20:00 +20°C° 1.1 mm 1 mps 658 mmHg 94%
    21:00 +20°C° 0.4 mm 1 mps 658 mmHg 95%
    22:00 +20°C° 0.4 mm 1 mps 658 mmHg 95%
    23:00 +19°C° 0.4 mm 1 mps 658 mmHg 95%

    22 January, Monday

    Time Temperature Precipitation Wind Pressure Humidity
    00:00 +19°C° 0.1 mm 1 mps 658 mmHg 95%
    01:00 +19°C° 0.1 mm 1 mps 657 mmHg 96%
    02:00 +19°C° 0.1 mm 1 mps 657 mmHg 96%
    03:00 +18°C° 0 mm 1 mps 657 mmHg 96%
    04:00 +18°C° 0 mm 1 mps 657 mmHg 97%
    05:00 +18°C° 0 mm 1 mps 657 mmHg 97%
    06:00 +19°C° 0 mm 1 mps 658 mmHg 95%
    07:00 +20°C° 0 mm 1 mps 659 mmHg 93%
    08:00 +21°C° 0 mm 1 mps 659 mmHg 92%
    09:00 +21°C° 0.7 mm 2 mps 659 mmHg 89%
    10:00 +23°C° 0.7 mm 2 mps 659 mmHg 86%
    11:00 +25°C° 0.7 mm 2 mps 659 mmHg 84%
    12:00 +25°C° 0.7 mm 2 mps 658 mmHg 80%
    13:00 +26°C° 0.7 mm 2 mps 658 mmHg 76%
    14:00 +27°C° 0.7 mm 2 mps 657 mmHg 72%
    15:00 +26°C° 0.3 mm 2 mps 657 mmHg 75%
    16:00 +26°C° 0.3 mm 2 mps 657 mmHg 78%
    17:00 +26°C° 0.3 mm 2 mps 657 mmHg 81%
    18:00 +24°C° 0.3 mm 1 mps 657 mmHg 86%
    19:00 +22°C° 0.3 mm 1 mps 657 mmHg 90%
    20:00 +21°C° 0.3 mm 1 mps 657 mmHg 95%
    21:00 +20°C° 0.8 mm 1 mps 657 mmHg 95%
    22:00 +20°C° 0.8 mm 1 mps 657 mmHg 96%
    23:00 +20°C° 0.8 mm 1 mps 657 mmHg 96%
    Show more